Weather History for Newburgh, NY

Change the Weather History Date:

Tuesday, December 25, 2012

  Actual Average Record
Temperature  
Mean Temperature 30 °F -  
Max Temperature 33 °F 35 °F 58 °F (1979)
Min Temperature 26 °F 21 °F -9 °F (1980)
Degree Days  
Heating Degree Days 36    
Moisture  
Dew Point 28 °F    
Average Humidity 91    
Maximum Humidity 100    
Minimum Humidity 80    
Precipitation  
Precipitation 0.00 in - - ()
Sea Level Pressure  
Sea Level Pressure 30.10 in    
Wind  
Wind Speed 4 mph (ENE)    
Max Wind Speed 7 mph    
Max Gust Speed -    
Visibility 7 miles    
Events Snow    
Averages and records for this station are not official NWS values.
T = Trace of Precipitation, MM = Missing Value Source: NWS Daily Summary

Daily Weather History Graph

Daily Weather History Graph

Search for Another Location

Airport:

Trip Planner

Search our weather history database for the weather conditions in past years. The results will help you decide how hot, cold, wet, or windy it might be!

Date:

Astronomy

Dec. 25, 2012 Rise Set
Actual Time 7:21 AM EST 4:32 PM EST
Civil Twilight 6:49 AM EST 5:03 PM EST
Nautical Twilight 6:15 AM EST 5:38 PM EST
Astronomical Twilight 5:41 AM EST 6:12 PM EST
Moon 2:39 PM EST (12/25) 4:50 AM EST (12/25)
Length of Visible Light 10h 13m
Length of Day
9h 10m
Waxing Gibbous, 93% of the Moon is Illuminated
Dec 25
Waxing Gibbous
Dec 28
Full
Jan 4
Last Quarter
Jan 11
New
Jan 18
First Quarter

Hourly Weather History & Observations

Time (EST) Temp. Windchill Dew Point Humidity Pressure Visibility Wind Dir Wind Speed Gust Speed Precip Events Conditions
12:45 AM 30.2 °F 23.4 °F 28.4 °F 93% 29.93 in 5.0 mi ENE 6.9 mph - N/A Snow Light Snow
2:45 AM 30.2 °F 26.7 °F 30.2 °F 100% 29.94 in 2.0 mi Variable 3.5 mph - N/A Snow Light Snow
5:45 AM 30.2 °F 25.4 °F 28.4 °F 93% 29.97 in 3.0 mi Variable 4.6 mph - N/A Snow Light Snow
6:45 AM 30.2 °F - 30.2 °F 100% 29.99 in 4.0 mi Calm Calm - N/A   Overcast
7:45 AM 30.2 °F - 30.2 °F 100% 30.01 in 4.0 mi Calm Calm - N/A   Mostly Cloudy
8:45 AM 30.2 °F - 30.2 °F 100% 30.04 in 4.0 mi Calm Calm - N/A   Mostly Cloudy
9:45 AM 32.0 °F 26.4 °F 30.2 °F 93% 30.06 in 4.0 mi Variable 5.8 mph - N/A   Overcast
10:45 AM 32.0 °F 26.4 °F 30.2 °F 93% 30.08 in 4.0 mi Variable 5.8 mph - N/A   Overcast
11:45 AM 33.8 °F 28.6 °F 30.2 °F 87% 30.07 in 7.0 mi Variable 5.8 mph - N/A   Overcast
12:45 PM 33.8 °F 28.6 °F 30.2 °F 87% 30.05 in 7.0 mi Variable 5.8 mph - N/A   Overcast
1:45 PM 33.8 °F 28.6 °F 30.2 °F 87% 30.10 in 8.0 mi Variable 5.8 mph - N/A   Overcast
2:45 PM 33.8 °F - 30.2 °F 87% 30.11 in 8.0 mi Calm Calm - N/A   Overcast
4:45 PM 33.8 °F - 30.2 °F 87% 30.13 in 10.0 mi Calm Calm - N/A   Overcast
6:45 PM 32.0 °F 26.4 °F 26.6 °F 80% 30.22 in 10.0 mi Variable 5.8 mph - N/A   Overcast
7:45 PM 30.2 °F - 26.6 °F 86% 30.22 in 10.0 mi Calm Calm - N/A   Scattered Clouds
8:45 PM 26.6 °F 21.2 °F 24.8 °F 93% 30.23 in 10.0 mi Variable 4.6 mph - N/A   Scattered Clouds
9:45 PM 26.6 °F - 24.8 °F 93% 30.25 in 10.0 mi Calm Calm - N/A   Clear
10:45 PM 26.6 °F - 23.0 °F 86% 30.27 in 10.0 mi Calm Calm - N/A   Clear
11:45 PM 26.6 °F - 23.0 °F 86% 30.26 in 10.0 mi Calm Calm - N/A   Clear